#timestamp,LO_Frequency,Hit,StdDev 
1569895215.3,286047000.5,N
1569895235.1,286046998.6,N
1569895236.0,286046998.6,N
1569895255.8,286047001.2,N
1569895275.7,286046998.9,N
1569895295.5,286046998.8,N
1569895315.3,286046998.9,N
1569895335.2,286046999.3,N
1569895355.0,286046999.2,N
1569895355.9,286046999.2,N
1569895375.8,286046999.0,N
1569895395.6,286046999.2,N
1569895415.4,286046999.2,N
1569895435.3,286046996.6,N
1569895455.1,286046997.9,N
1569895475.9,286046996.2,N
1569895495.7,286046996.2,N
1569895515.5,286046995.4,Y
1569895535.4,286046997.5,P
1569895555.2,286046995.5,P
1569895575.1,286046993.9,P
1569895576.0,286046993.9,N
1569895595.8,286046994.8,N
1569895615.6,286046994.8,N
1569895635.5,286046994.5,N
1569895655.3,286046991.8,Y
1569895675.1,286046993.3,P
1569895695.9,286046994.1,P
1569895715.5,286046996.2,P
1569895735.3,286046995.5,Y
1569895755.2,286047000.5,P
1569895775.9,286047001.0,N
1569895795.7,286046999.4,N
1569895815.6,286047000.9,N
1569895835.4,286047002.7,N
1569895855.2,286047002.5,N
1569895875.1,286047002.1,N
1569895876.0,286047002.1,N
1569895895.8,286047000.1,N
1569895915.7,286047001.0,N
1569895935.5,286047001.1,N
1569895955.3,286046998.9,N
1569895975.2,286047000.7,N
1569895995.0,286046999.8,N
1569895995.9,286046999.8,N
1569896015.8,286047002.0,N
1569896035.6,286047001.8,N
1569896055.4,286047002.3,N
1569896075.3,286047001.7,N
1569896095.1,286047000.4,N
1569896115.9,286046998.8,N
1569896135.7,286046997.0,N
1569896155.5,286046998.9,N
1569896175.4,286046999.1,N
1569896195.2,286047000.7,N
1569896215.0,286046999.7,N
1569896215.9,286046999.7,N
1569896235.8,286046999.8,N
1569896255.6,286047002.3,N
1569896275.5,286047002.3,N
1569896295.3,286047000.0,N
1569896315.1,286047001.2,N
1569896335.9,286047001.0,N
1569896355.7,286046998.1,N
1569896375.6,286046998.6,N
1569896395.4,286046998.1,N
1569896415.2,286046996.9,N
1569896435.1,286046999.2,N
1569896436.0,286046999.2,N
1569896455.8,286046996.9,N
1569896475.7,286046996.8,N
1569896495.5,286046996.7,N
1569896515.3,286046998.4,N
1569896535.2,286047001.1,N
1569896555.0,286047001.0,N
1569896555.9,286047001.0,N
1569896575.7,286046998.9,N
1569896595.6,286047001.1,N
1569896615.4,286047000.9,N
1569896635.3,286047001.3,N
1569896655.1,286047003.3,N
1569896675.8,286047005.6,Y
1569896695.7,286047003.3,P
1569896715.5,286047005.2,N
1569896735.4,286047005.4,N
1569896755.2,286047002.9,N
1569896775.0,286047003.8,N
1569896775.9,286047003.8,N
1569896795.8,286047001.5,N
1569896815.6,286047004.0,N
1569896835.5,286047003.8,N
1569896855.3,286047004.7,N
1569896875.1,286047003.3,N
1569896895.9,286047003.9,N
1569896915.7,286047001.9,N
1569896935.5,286047001.4,N
1569896955.4,286047004.0,N
1569896975.2,286047002.3,N
1569896995.1,286047003.0,N
1569896996.0,286047003.0,N
1569897015.8,286047005.9,Y
1569897035.6,286047002.6,P
1569897055.5,286047002.1,P
1569897075.3,286047002.7,P
1569897095.2,286047001.9,Y
1569897115.9,286046998.5,P
1569897135.7,286047000.5,N
1569897155.6,286046998.6,N
1569897175.4,286046999.2,N
1569897195.2,286046997.1,N
1569897215.1,286046999.2,N
1569897216.0,286046999.2,N
1569897235.8,286046997.3,N
1569897255.7,286046996.9,N
1569897275.5,286046996.9,N
1569897295.3,286046998.8,N
1569897315.2,286047000.4,N
1569897335.0,286046998.4,N
1569897335.9,286046998.4,N
1569897355.7,286046998.4,N
1569897375.6,286046998.9,N
1569897395.4,286046998.8,N
1569897415.3,286046999.6,N
1569897435.1,286046997.7,N
1569897436.0,286046997.7,N
1569897455.8,286046999.0,N
1569897475.7,286046998.8,N
1569897495.5,286046998.7,N
1569897515.4,286046998.8,N
1569897535.2,286046999.6,N
1569897555.0,286046996.7,N
1569897555.9,286046996.7,N
1569897575.8,286046997.6,N
1569897595.6,286046998.5,N
1569897615.4,286046998.1,N
1569897635.3,286046996.7,Y
1569897655.1,286046999.3,P
1569897675.9,286046996.6,P
1569897695.7,286046999.6,N
1569897715.5,286046998.7,N
1569897735.4,286047002.8,N
1569897755.2,286047002.5,N
1569897775.1,286047001.6,N
1569897776.0,286047001.6,N
1569897795.8,286047002.2,N
1569897815.6,286047000.3,N
1569897835.5,286047000.4,N
1569897855.3,286047001.0,N
1569897875.1,286047000.0,N
1569897895.9,286046999.8,N
1569897915.7,286047000.2,N
1569897935.6,286047001.0,N
1569897955.4,286047000.3,N
1569897975.2,286047000.7,N
1569897995.1,286047002.7,N
1569897996.0,286047002.7,N
1569898015.8,286047001.3,N
1569898035.6,286047003.6,N
1569898055.5,286047004.2,N
1569898075.3,286047006.0,Y
1569898095.2,286047002.5,P
1569898115.9,286047002.8,P
1569898135.7,286047000.3,N
1569898155.6,286046999.7,N
1569898175.4,286046998.4,N
1569898195.3,286047001.0,N
1569898215.1,286047000.1,N
1569898216.0,286047000.1,N
1569898235.8,286047001.2,N
1569898255.7,286046998.7,N
1569898275.5,286047000.1,N
1569898295.3,286047002.6,N
1569898315.2,286047002.5,N
1569898335.0,286047002.8,N
1569898335.9,286047002.8,N
1569898355.8,286046998.6,N
1569898375.6,286046998.3,N
1569898395.4,286046998.6,N
1569898415.3,286046998.9,N
1569898435.1,286047000.6,N
1569898455.9,286047000.2,N
1569898475.7,286046998.1,N
1569898495.5,286047000.1,N
1569898515.4,286047002.1,N
1569898535.2,286047002.5,N
1569898555.0,286047001.7,N
1569898556.0,286047001.7,N
1569898575.8,286047004.1,N
1569898595.6,286047003.5,N
1569898615.5,286047001.7,N
1569898635.3,286046999.7,N
1569898655.1,286047000.7,N
1569898675.9,286047001.1,N
1569898695.7,286046999.0,N
1569898715.6,286046998.4,N
1569898735.4,286047001.0,N
1569898755.2,286046999.0,N
1569898775.1,286046999.5,N
1569898776.0,286046999.5,N
1569898795.8,286046998.9,N
